[[{"header":{"parameterUnit":"m.s-1","parameterCategory":1,"la1":30.2991,"la2":30.254,"lo1":-89.0895,"lo2":-89.0444,"dy":0.0017,"dx":0.0017,"nx":28,"ny":28,"refTime":"2024-10-05T03:00:00:Z","depth":0,"parameterNumber":2,"parameterNumberName":"U-component_of_WINDS"},"data":[0,0,0,0,0,0,0,0,0,0,0,0,0,0,0,0,0,0,0,0,0,0,0,0,0,0,0,0,0,0,0,0,0,0,0,0,0,0,0,0,0,0,0,0,0,0,0,0,0,0,0,0,0,0,0,0,0,0,-3.1528,-3.1528,0,-3.1561,-3.1562,-3.1562,-3.1465,-3.1462,-3.1459,-3.1456,-3.1492,-3.1496,-3.15,0,0,0,0,0,0,0,0,0,0,0,0,0,-3.1381,-3.1384,-3.1527,-3.1528,-3.1528,-3.1561,-3.1562,-3.1562,-3.1465,-3.1462,-3.1458,-3.1455,-3.1491,-3.1496,-3.15,0,0,0,0,0,0,0,0,0,0,0,0,0,-3.1433,-3.1385,-3.1527,-3.1484,-3.148,-3.1561,-3.1562,-3.1562,-3.1466,-3.1462,-3.1457,-3.1453,-3.149,-3.1495,-3.1501,-3.1625,0,0,-3.1518,-3.152,0,0,0,0,0,0,0,0,-3.143,-3.1438,-3.149,-3.1487,-3.1483,-3.1504,-3.1523,-3.1583,-3.1467,-3.1472,-3.1456,-3.1451,-3.15,-3.1505,-3.1521,-3.1627,-3.1629,-3.1518,-3.1522,-3.1524,-3.1526,0,0,0,0,0,0,0,-3.1427,-3.1436,-3.1541,-3.1491,-3.1487,-3.1463,-3.1466,-3.1534,-3.1511,-3.1471,-3.1464,-3.1469,-3.1497,-3.1516,-3.1521,-3.1629,-3.1518,-3.1523,-3.1527,-3.1529,-3.1841,-3.1845,0,0,0,0,0,0,-3.1428,-3.1434,-3.154,-3.1542,-3.1445,-3.147,-3.1472,-3.1502,-3.151,-3.1506,-3.1473,-3.1465,-3.1508,-3.1514,-3.1522,-3.1669,-3.1524,-3.1529,-3.1533,-3.1836,-3.1842,-3.1847,0,0,0,0,0,0,-3.1426,-3.1439,-3.1538,-3.1486,-3.1497,-3.1477,-3.1511,-3.1505,-3.1523,-3.1511,-3.1507,-3.1496,-3.1505,-3.1514,-3.16,-3.1669,-3.1532,-3.1537,-3.183,-3.1838,-3.1844,-3.1965,0,0,0,0,0,0,-3.1422,-3.1438,-3.1485,-3.1488,-3.15,-3.1616,-3.1515,-3.1509,-3.1533,-3.1522,-3.1531,-3.1529,-3.1502,-3.1593,-3.1606,-3.1674,-3.1541,-3.1824,-3.1833,-3.1842,-3.1955,-3.1975,-3.1993,0,0,0,0,0,-3.1417,-3.1518,-3.1488,-3.1501,-3.1558,-3.162,-3.1627,-3.1594,-3.1539,-3.1586,-3.1578,-3.1528,-3.1659,-3.1602,-3.1617,-3.1688,-3.1819,-3.1831,-3.1841,-3.1946,-3.1971,-3.1993,0,0,0,0,0,0,-3.1524,-3.1517,-3.1484,-3.1589,-3.1606,-3.1604,-3.1662,-3.1622,-3.1656,-3.1644,-3.1602,-3.1605,-3.17,-3.1702,-3.1639,-3.1809,-3.173,-3.1744,-3.1805,-3.1829,-3.1847,-3.1845,-3.1546,0,0,0,0,0,-3.156,-3.161,-3.1602,-3.1695,-3.1705,-3.1683,-3.1709,-3.1682,-3.1698,-3.1705,-3.1703,-3.1722,-3.1767,-3.1797,-3.1838,-3.1954,-3.1956,-3.201,-3.2029,-3.2045,-3.2059,-3.2122,-3.2146,-3.1883,-3.1883,-3.1883,0,0,-3.1634,-3.1637,-3.1671,-3.1717,-3.1727,-3.1781,-3.1689,-3.175,-3.179,-3.1714,-3.1796,-3.1796,-3.1813,-3.1916,-3.196,-3.192,-3.2132,-3.2059,-3.2072,-3.2077,-3.2135,-3.216,-3.2183,-3.1891,-3.1889,-3.1888,0,0,-3.1797,-3.1804,-3.1883,-3.1895,-3.1911,-3.1896,-3.1915,-3.1919,-3.1916,-3.1997,-3.1942,-3.1989,-3.2067,-3.2083,-3.2101,-3.2271,-3.2227,-3.2285,-3.2387,-3.2448,-3.2469,-3.2487,-3.2549,-3.2572,-3.2299,-3.2299,-3.2299,0,-3.1888,-3.1967,-3.1928,-3.1994,-3.2016,-3.1949,-3.2029,-3.2043,-3.2072,-3.2089,-3.2044,-3.2141,-3.2148,-3.2254,-3.2296,-3.2312,-3.2333,-3.2285,-3.2469,-3.2487,-3.2503,-3.2562,-3.2586,-3.2306,-3.2305,-3.2304,-3.2304,0,-3.2078,-3.2134,-3.2196,-3.2226,-3.2254,-3.2327,-3.23,-3.2334,-3.2305,-3.2295,-3.2379,-3.2385,-3.2427,-3.2449,-3.2421,-3.2552,-3.2527,-3.2476,-3.2395,-3.2536,-3.2591,-3.2613,-3.2316,-3.2314,-3.2312,-3.231,0,0,-3.231,-3.2318,-3.2342,-3.2355,-3.2368,-3.2411,-3.2481,-3.2521,-3.2552,-3.2574,-3.2633,-3.2701,-3.2654,-3.2675,-3.2648,-3.2702,-3.2839,-3.2645,-3.2645,-3.2682,-3.2984,-3.3023,-3.305,-3.2809,-3.2813,-3.2816,-3.2983,0,-3.2472,-3.2591,-3.2559,-3.2679,-3.2731,-3.2668,-3.2729,-3.2744,-3.2737,-3.278,-3.2771,-3.2821,-3.2755,-3.2767,-3.2818,-3.2811,-3.2899,-3.2799,-3.2864,-3.2867,-3.2863,-3.3078,-3.312,-3.3277,-3.3004,-3.3008,-3.301,0,-3.2677,-3.2708,-3.2833,-3.2838,-3.2859,-3.2914,-3.2949,-3.2991,-3.3008,-3.2998,-3.3022,-3.2985,-3.3054,-3.2973,-3.3069,-3.3002,-3.3027,-3.3028,-3.3033,-3.3039,-3.2948,-3.3091,-3.3326,-3.3351,-3.3043,-3.3041,-3.3038,0,-3.2835,-3.2908,-3.2992,-3.3005,-3.3014,-3.3055,-3.306,-3.3072,-3.3099,-3.313,-3.3147,-3.3185,-3.3207,-3.3238,-3.3213,-3.3155,-3.3314,-3.323,-3.3309,-3.331,-3.3346,-3.3345,-3.359,-3.3361,-3.336,-3.336,-3.3359,0,-3.302,-3.31,-3.3064,-3.3116,-3.3203,-3.3165,-3.3253,-3.3251,-3.3263,-3.3314,-3.3262,-3.3312,-3.3274,-3.3321,-3.3301,-3.3385,-3.3395,-3.339,-3.3384,-3.3395,-3.3396,-3.3412,-3.3401,-3.3366,-3.3365,-3.3363,-3.3362,0,-3.3213,-3.3191,-3.3279,-3.3281,-3.3283,-3.3347,-3.3348,-3.3397,-3.3386,-3.3451,-3.3465,-3.3447,-3.3499,-3.3476,-3.3531,-3.3518,-3.3626,-3.3605,-3.3621,-3.3616,-3.3697,-3.3691,-3.3962,-3.3997,-3.3744,-3.3747,-3.3749,0,-3.3333,-3.3392,-3.34,-3.343,-3.344,-3.3489,-3.3516,-3.3482,-3.3513,-3.3537,-3.3583,-3.363,-3.3667,-3.3753,-3.3746,-3.3788,-3.3768,-3.3861,-3.3774,-3.3785,-3.3772,-3.3769,-3.3775,-3.3879,-3.3881,-3.3884,-3.3886,0,-3.3548,-3.3535,-3.3576,-3.3614,-3.3648,-3.3676,-3.3699,-3.3727,-3.3694,-3.3731,-3.3784,-3.3812,-3.3868,-3.3917,-3.3954,-3.396,-3.3919,-3.3913,-3.3934,-3.3947,-3.3954,-3.3953,-3.367,-3.3907,-3.3905,-3.3903,-3.3902,-3.3901,-3.3709,-3.3759,-3.3773,-3.3821,-3.3835,-3.3858,-3.3905,-3.3899,-3.3942,-3.3985,-3.3962,-3.4024,-3.404,-3.4086,-3.4098,-3.4147,-3.4111,-3.4141,-3.4148,-3.4157,-3.4168,-3.3945,-3.4153,-3.4153,-3.4152,-3.4152,-3.4151,0,-3.3923,-3.3929,-3.3973,-3.4008,-3.4046,-3.4002,-3.4026,-3.4061,-3.4116,-3.4134,-3.4171,-3.4233,-3.428,-3.4276,-3.432,-3.4359,-3.4341,-3.4372,-3.437,-3.4372,-3.4197,-3.4176,-3.4386,-3.4386,-3.4386,-3.4386,-3.4386,-3.4386,-3.4039,-3.4123,-3.4112,-3.4202,-3.4207,-3.4267,-3.4285,-3.4307,-3.4321,-3.4392,-3.4431,-3.4428,-3.4438,-3.4482,-3.4524,-3.4522,-3.4541,-3.4579,-3.457,-3.4407,-3.4384,-3.4362,-3.4341,-3.4583,-3.4584,-3.4741,-3.4742,-3.4744]},{"header":{"parameterUnit":"m.s-1","parameterCategory":1,"la1":30.2991,"la2":30.254,"lo1":-89.0895,"lo2":-89.0444,"dy":0.0017,"dx":0.0017,"nx":28,"ny":28,"refTime":"2024-10-05T03:00:00:Z","depth":0,"parameterNumber":3,"parameterNumberName":"V-component_of_WINDS"},"data":[0,0,0,0,0,0,0,0,0,0,0,0,0,0,0,0,0,0,0,0,0,0,0,0,0,0,0,0,0,0,0,0,0,0,0,0,0,0,0,0,0,0,0,0,0,0,0,0,0,0,0,0,0,0,0,0,0,0,-3.8272,-3.8273,0,-3.8324,-3.8324,-3.8325,-3.8287,-3.8286,-3.8284,-3.8283,-3.8333,-3.8336,-3.8339,0,0,0,0,0,0,0,0,0,0,0,0,0,-3.8138,-3.8141,-3.8272,-3.8273,-3.8274,-3.8324,-3.8324,-3.8325,-3.8288,-3.8286,-3.8284,-3.8282,-3.8332,-3.8336,-3.8339,0,0,0,0,0,0,0,0,0,0,0,0,0,-3.8194,-3.8142,-3.8272,-3.8261,-3.8261,-3.8323,-3.8324,-3.8325,-3.8288,-3.8286,-3.8283,-3.8281,-3.8331,-3.8335,-3.8339,-3.8416,0,0,-3.8353,-3.8355,0,0,0,0,0,0,0,0,-3.8191,-3.8199,-3.8262,-3.8262,-3.8261,-3.8297,-3.8296,-3.8355,-3.8289,-3.8278,-3.8282,-3.828,-3.8323,-3.8328,-3.8343,-3.8418,-3.842,-3.8353,-3.8356,-3.8358,-3.8359,0,0,0,0,0,0,0,-3.8187,-3.8196,-3.8292,-3.8263,-3.8263,-3.8252,-3.8257,-3.8307,-3.8313,-3.8278,-3.8276,-3.8282,-3.8322,-3.8339,-3.8344,-3.8421,-3.8353,-3.8357,-3.8359,-3.8361,-3.8559,-3.8561,0,0,0,0,0,0,-3.8185,-3.8193,-3.8291,-3.8294,-3.8219,-3.8257,-3.8262,-3.8288,-3.8313,-3.8314,-3.8284,-3.8281,-3.8332,-3.8339,-3.8345,-3.8435,-3.8357,-3.8362,-3.8364,-3.8556,-3.856,-3.8562,0,0,0,0,0,0,-3.8182,-3.8194,-3.8289,-3.8243,-3.8254,-3.8262,-3.829,-3.829,-3.8306,-3.8317,-3.8318,-3.83,-3.8331,-3.8339,-3.8398,-3.8436,-3.8363,-3.8367,-3.8553,-3.8557,-3.8561,-3.8615,0,0,0,0,0,0,-3.8178,-3.8193,-3.8223,-3.8244,-3.8257,-3.8342,-3.8293,-3.8293,-3.8314,-3.831,-3.8332,-3.8334,-3.8329,-3.8392,-3.8402,-3.8441,-3.8371,-3.855,-3.8555,-3.856,-3.861,-3.8621,-3.863,0,0,0,0,0,-3.8174,-3.8236,-3.8225,-3.8236,-3.8295,-3.8344,-3.8352,-3.8346,-3.8318,-3.8347,-3.8354,-3.8333,-3.843,-3.8398,-3.841,-3.845,-3.8547,-3.8554,-3.8559,-3.8606,-3.8619,-3.8629,0,0,0,0,0,0,-3.8219,-3.8239,-3.8226,-3.8298,-3.832,-3.8338,-3.8375,-3.836,-3.839,-3.8384,-3.8375,-3.838,-3.8442,-3.8452,-3.8416,-3.8524,-3.8484,-3.8493,-3.8515,-3.8528,-3.8537,-3.8534,-3.8374,0,0,0,0,0,-3.8237,-3.8276,-3.8291,-3.8353,-3.8365,-3.8368,-3.8389,-3.8383,-3.8405,-3.8414,-3.8425,-3.8447,-3.8482,-3.8505,-3.8538,-3.8611,-3.8615,-3.8644,-3.8654,-3.8662,-3.867,-3.8707,-3.872,-3.8582,-3.8582,-3.8582,0,0,-3.8275,-3.8291,-3.8316,-3.8362,-3.8379,-3.8418,-3.8376,-3.8421,-3.845,-3.8421,-3.8477,-3.8486,-3.8509,-3.8575,-3.8604,-3.8585,-3.8708,-3.867,-3.8676,-3.8679,-3.8715,-3.8728,-3.8739,-3.8586,-3.8585,-3.8585,0,0,-3.8365,-3.8381,-3.8434,-3.8451,-3.8476,-3.8478,-3.849,-3.8511,-3.8515,-3.8572,-3.855,-3.8584,-3.8646,-3.8663,-3.8679,-3.8774,-3.8756,-3.8785,-3.8836,-3.8873,-3.8884,-3.8893,-3.8926,-3.8938,-3.8792,-3.8793,-3.8793,0,-3.8409,-3.8469,-3.8462,-3.8508,-3.8528,-3.8504,-3.8556,-3.8573,-3.8607,-3.8621,-3.8599,-3.8674,-3.8688,-3.8757,-3.878,-3.8795,-3.8808,-3.8782,-3.8883,-3.8892,-3.8901,-3.8932,-3.8945,-3.8796,-3.8795,-3.8795,-3.8795,0,-3.8522,-3.8564,-3.8603,-3.8637,-3.8661,-3.871,-3.8709,-3.8735,-3.8726,-3.8729,-3.8786,-3.8802,-3.8837,-3.8853,-3.8845,-3.892,-3.8907,-3.8884,-3.8844,-3.8918,-3.8947,-3.8959,-3.8801,-3.8799,-3.8798,-3.8798,0,0,-3.8642,-3.8671,-3.8686,-3.87,-3.8726,-3.8757,-3.8804,-3.8839,-3.886,-3.8885,-3.8923,-3.8974,-3.8953,-3.8972,-3.8965,-3.8997,-3.907,-3.897,-3.897,-3.8987,-3.9153,-3.917,-3.9184,-3.9058,-3.906,-3.9062,-3.915,0,-3.8733,-3.8816,-3.881,-3.8887,-3.8925,-3.8902,-3.8942,-3.8961,-3.8965,-3.8997,-3.9001,-3.9038,-3.9007,-3.9018,-3.9049,-3.9055,-3.9103,-3.9048,-3.9092,-3.9094,-3.9087,-3.9199,-3.9218,-3.9301,-3.9162,-3.9164,-3.9165,0,-3.885,-3.8878,-3.896,-3.8978,-3.8994,-3.903,-3.9061,-3.9092,-3.9112,-3.9113,-3.9134,-3.9121,-3.9167,-3.9125,-3.9188,-3.915,-3.9168,-3.9173,-3.9176,-3.918,-3.9134,-3.9205,-3.9327,-3.9339,-3.9183,-3.9182,-3.918,0,-3.8929,-3.8987,-3.9043,-3.9056,-3.9079,-3.9105,-3.9116,-3.9134,-3.9155,-3.9181,-3.9194,-3.9226,-3.9243,-3.9267,-3.9262,-3.9233,-3.9325,-3.9284,-3.9326,-3.9326,-3.9347,-3.9345,-3.9472,-3.9359,-3.9358,-3.9358,-3.9358,0,-3.9031,-3.9081,-3.9079,-3.9113,-3.9168,-3.916,-3.9215,-3.9222,-3.9238,-3.9272,-3.9254,-3.9286,-3.9278,-3.931,-3.9307,-3.9358,-3.9366,-3.9367,-3.9365,-3.9369,-3.9368,-3.938,-3.9374,-3.9361,-3.9361,-3.936,-3.936,0,-3.9128,-3.9129,-3.9188,-3.9205,-3.921,-3.925,-3.9263,-3.9295,-3.9297,-3.9341,-3.935,-3.9353,-3.939,-3.9387,-3.9428,-3.9426,-3.9489,-3.9481,-3.9482,-3.9481,-3.9523,-3.9518,-3.9661,-3.9679,-3.9554,-3.9555,-3.9556,0,-3.9193,-3.9231,-3.9252,-3.9274,-3.9286,-3.9322,-3.9343,-3.9336,-3.9358,-3.9383,-3.9412,-3.9446,-3.9474,-3.9532,-3.9538,-3.9568,-3.9561,-3.9608,-3.9565,-3.9567,-3.956,-3.9558,-3.9561,-3.9617,-3.9618,-3.962,-3.962,0,-3.9308,-3.9306,-3.9337,-3.9369,-3.9394,-3.9418,-3.944,-3.9459,-3.9454,-3.948,-3.9517,-3.9538,-3.9579,-3.9614,-3.9643,-3.9652,-3.9635,-3.9634,-3.9645,-3.9649,-3.9648,-3.9648,-3.9505,-3.9631,-3.963,-3.9629,-3.9628,-3.9628,-3.9391,-3.9423,-3.9442,-3.9477,-3.9493,-3.9514,-3.9544,-3.955,-3.9581,-3.9614,-3.9608,-3.9649,-3.9666,-3.9704,-3.9716,-3.9747,-3.973,-3.9747,-3.9751,-3.9755,-3.9759,-3.9643,-3.9753,-3.9752,-3.9752,-3.9752,-3.9752,0,-3.9504,-3.9515,-3.9547,-3.9578,-3.9606,-3.9588,-3.961,-3.9634,-3.9671,-3.9689,-3.9716,-3.9758,-3.979,-3.9798,-3.9829,-3.9852,-3.9845,-3.986,-3.9859,-3.9861,-3.9773,-3.976,-3.9866,-3.9866,-3.9866,-3.9866,-3.9866,-3.9865,-3.9566,-3.9619,-3.962,-3.968,-3.969,-3.9731,-3.9745,-3.9763,-3.9778,-3.9825,-3.9852,-3.9857,-3.987,-3.9902,-3.993,-3.9932,-3.9944,-3.9962,-3.996,-3.9878,-3.9867,-3.9856,-3.9844,-3.9965,-3.9965,-4.0045,-4.0045,-4.0046]}]]